Other Public Products
Issued by NWS Grand Forks, ND

Home | Current Version | Previous Version | Graphics & Text | Print | Product List | Glossary On
Versions: 1 2 3 4 5 6 7 8 9 10 11 12 13 14 15 16 17 18 19 20 21 22 23 24 25 26 27 28 29 30 31 32 33 34 35 36 37 38 39 40 41 42 43 44 45 46 47 48 49 50
049
FPUS83 KFGF 200331
OPUFGF
PRAIRIE TO PINES WEATHER ROUNDUP
NATIONAL WEATHER SERVICE EASTERN NORTH DAKOTA/GRAND FORKS ND
900 PM CST MON FEB 19 2018

 **SATELLITE DATA USED TO AUGMENT SKY COVER AT AUTOMATED STATIONS**
 *****  WEATHER ACROSS EASTERN NORTH DAKOTA  *****

CITY           SKY/WX    TMP DP  RH WIND       PRES   REMARKS
GRAND FORKS    CLOUDY     5  -4  66 N16       30.22S WCI -14
GRND FORKS AFB CLOUDY     4  -5  66 N15       30.22S WCI -14
GRND FORKS NWS   N/A      4  -3  74 N10       30.18F WCI -12
BUXTON           N/A    N/A N/A N/A CALM        N/A
DEVILS LAKE    LGT SNOW   3  -2  78 N9        30.18S WCI -11
FARGO          LGT SNOW   6   1  80 N24G32    30.11F WCI -16
WAHPETON ARPT  CLOUDY     9   3  78 N18G25    30.04F WCI -10
$$

 *****  WEATHER ACROSS CENTRAL AND WESTERN NORTH DAKOTA  *****

CITY           SKY/WX    TMP DP  RH WIND       PRES   REMARKS
JAMESTOWN      LGT SNOW   3  -1  83 N20       30.11F FOG     WCI -18
BISMARCK       LGT SNOW   4  -1  80 NE8       30.16S WCI  -9
MINOT          CLOUDY     6   0  76 NW5       30.15F WCI  -3
MINOT AFB      FAIR       5  -4  65 CALM      30.15S
GARRISON         N/A      3  -1  83 CALM      30.15S
WILLISTON      LGT SNOW   3  -1  83 SW3       30.15S FOG
DICKINSON      LGT SNOW   2  -2  83 N3        30.06R FOG
HETTINGER      LGT SNOW   0  -5  79 NE9       30.04F WCI -15
$$

 *****  OTHER OBSERVATIONS NORTHEAST NORTH DAKOTA  *****

CITY           SKY/WX    TMP DP  RH WIND       PRES   REMARKS
WALHALLA       FAIR       5  -8  56 N7        30.24F WCI  -7
LANGDON        MOCLDY     3  -6  66 NE7       30.16F WCI  -9
CAVALIER         N/A      5  -6  61 N8        30.24F WCI  -8
GRAFTON        FAIR       5  -6  61 N14       30.26R WCI -12
CANDO          FLURRIES   5  -6  61 CALM      30.19F
FORT TOTTEN      N/A      2  -3  79 N3        29.95S
ROLLA          CLOUDY     3  -8  60 W3        30.15R
RUGBY            N/A      3  -4  72 CALM      30.18S
 ***** THE ABOVE OBSERVATIONS ARE NON NWS ARE NOT QUALITY
        CONTROLLED AND MAY MIS-REPORT RAIN FOR SNOW...
$$

 *****  OTHER OBSERVATIONS SOUTHEAST NORTH DAKOTA *****

CITY           SKY/WX    TMP DP  RH WIND       PRES   REMARKS
COOPERSTOWN    LGT SNOW   3  -2  78 N18       30.14F WCI -17
VALLEY CITY    LGT SNOW   1   0  92 N17       30.11F WCI -19
OAKES            N/A      3  -2  78 N23G29    30.06F HAZE    WCI -19
GWINNER          N/A      3   0  85 N21G29    30.06S FOG     WCI -18
SHEYENNE NWR     N/A      4  -1  79 NE16      29.95S WCI -15
BUFFALO          N/A      3  -2  79 SE20        N/A  WCI -18
WYNDMERE       NOT AVBL
 ***** THE ABOVE OBSERVATIONS ARE NON NWS ARE NOT QUALITY
       CONTROLLED AND MAY MIS-REPORT RAIN FOR SNOW...
$$

  *****  WEATHER ACROSS NORTHERN MINNESOTA  *****

CITY           SKY/WX    TMP DP  RH WIND       PRES   REMARKS
FLAG ISLAND    MOCLDY     7  -8  51 N8        30.20S WCI  -6
WARROAD        FAIR       7  -4  61 N8        30.19S WCI  -6
ROSEAU         NOT AVBL
HALLOCK        CLOUDY     5  -8  56 N9        30.23S WCI  -9
THF RVR FALLS  CLOUDY   N/A N/A N/A N12       30.18R
HALSTAD        NOT AVBL
FOSSTON        FLURRIES   3  -2  78 N15       30.11R WCI -15
BAUDETTE       CLOUDY     7  -4  60 NE12      30.16S WCI  -8
WASKISH        CLOUDY     9   0  66 NE7       30.12F WCI  -3
CROOKSTON      MOCLDY     7   0  72 N14       30.19F WCI -10
$$
  *****  WEATHER ACROSS CENTRAL AND WEST MINNESOTA  *****

CITY           SKY/WX    TMP DP  RH WIND       PRES   REMARKS
BEMIDJI        LGT SNOW   8   2  78 NE9       30.07S WCI  -6
PARK RAPIDS    FLURRIES  10   4  76 NE9       30.01F WCI  -3
WADENA         FLURRIES  10   7  85 NE14G21   29.99S WCI  -5
DETROIT LAKES  LGT SNOW  10   7  85 N10       30.05S WCI  -3
MOORHEAD       LGT SNOW   5   0  78 N21G26    30.10F WCI -16
FERGUS FALLS   FLURRIES  10   7  85 NE9       30.03F WCI  -2
ELBOW LAKE     FLURRIES  11   8  87 NE12G17   30.01R WCI  -3
MORRIS MN      LGT SNOW  12   9  85 N13       29.98S WCI  -3
STAPLES        FLURRIES  10   7  85 N10G16    29.99F WCI  -3
WHEATON        LGT SNOW   9   3  78 N14       30.05S WCI  -8
$$
  *****  WEATHER ELSEWHERE ACROSS MINNESOTA  *****

CITY           SKY/WX    TMP DP  RH WIND       PRES   REMARKS
DULUTH         LGT SNOW  12   7  80 NE10      30.01S WCI  -1
INTRNTL FALLS  CLOUDY     8  -2  63 NE8       30.15S WCI  -4
ELY            LGT SNOW   7   1  78 NE7       30.08F WCI  -5
CLOQUET        FLURRIES  10   7  85 NE12G18   29.99F WCI  -4
BRAINERD       CLOUDY    13   3  64 NE13      30.00S WCI  -2
HIBBING        LGT SNOW   8   3  80 NE9       30.06S WCI  -5
ALEXANDRIA     CLOUDY    12   6  77 NE13G23   29.96F WCI  -3
SAINT CLOUD    CLOUDY    14  10  84 N10       29.94F WCI   1
MINNEAPOLIS    FRZ DRZL  20  19  96 NE12      29.89F FOG     WCI   8
$$

  *****  WEATHER ACROSS SOUTH DAKOTA  *****

CITY           SKY/WX    TMP DP  RH WIND       PRES   REMARKS
SIOUX FALLS    FLURRIES  15  11  83 NE15      29.89F WCI   0
BROOKINGS      FLURRIES  10   6  84 NE15G21   29.89F WCI  -7
WATERTOWN      CLOUDY     6   3  87 N20       29.90F FOG     WCI -14
HURON          LGT SNOW   8   5  87 N14       29.98S FOG     WCI  -8
SISSETON         N/A      6   3  87 N20       30.03F WCI -14
ABERDEEN       LGT SNOW   5   0  79 N23       30.08R WCI -17
MITCHELL       CLOUDY    12   7  80 N14       29.97R WCI  -3
PIERRE         SNOW       6   3  87 N16       30.02F VSB 1/2 WCI -12
MOBRIDGE       LGT SNOW   5  -1  76 N16       30.04F VSB 3/4 WCI -14
RAPID CITY     LGT SNOW  -1  -5  82 N16       29.96R FOG     WCI -21
$$

  *****  SOME WEATHER IN NEARBY STATES *****

CITY           SKY/WX    TMP DP  RH WIND       PRES   REMARKS
GLASGOW MT     CLOUDY    -3  -8  79 CALM      30.11F
GREAT FALLS MT FAIR      -9 -14  78 SW6       29.99R WCI -22
CHEYENNE WY    LGT SNOW  -1  -5  82 NE10      29.61R VSB 1   WCI -17
SCOTTSBLUFF NE FOG        1  -3  83 N9        29.86F VSB 1/2 WCI -14
OMAHA NE       CLOUDY    22  20  92 NW13      29.86F WCI  10
DES MOINES IA  CLOUDY    28  26  92 NW13      29.83S FOG     WCI  17
DAVENPORT IA   CLOUDY    46  44  93 W9        29.79R
CHICAGO IL     RAIN      58  55  90 S20G26    29.80F
EAU CLAIRE WI  CLOUDY    22  21  96 NE12      29.87R FOG     WCI  10
LA CROSSE WI   CLOUDY    34  32  92 NE7       29.80R FOG
$$

  *****  SOME NATIONAL WEATHER *****

CITY           SKY/WX    TMP DP  RH WIND       PRES   REMARKS
LA GUARDIA NY  CLOUDY    47  45  93 SE5       30.33S FOG
RALEIGH NC     FOG       50  50 100 CALM      30.43R VSB 1/4
ATLANTA GA     MOCLDY    61  61 100 E12       30.32R
NEW ORLEANS LA MOCLDY    73  70  90 SE12      30.13R
OKLAHOMA CITY  CLOUDY    47  40  76 N7        29.73S
ALBUQUERQUE NM FAIR      53  26  35 SW26G38   29.58R
SALT LAKE CITY FAIR      26  15  63 W3        29.72R
LOS ANGELES CA FAIR      52  18  26 N13G21    29.96R
BOISE ID       CLOUDY    20   5  52 NW16G29   29.92R WCI   6
SEATTLE WA     FAIR      33  11  39 CALM      30.19S
$$

*** WEATHER ACROSS MANITOBA...SASKATCHEWAN AND ONTARIO ***
                ***ONTARIO***

CITY           SKY/WX    TMP DP  RH WIND       PRES   REMARKS
GERALDTON      CLOUDY    -8 -15  71 NE10      30.29S WCI -26
THUNDER BAY    LGT SNOW   5   1  85 NE7       30.22S WCI  -7
SIOUX LOOKOUT  CLOUDY     0 -13  55 NE5       30.23R WCI -10
TORONTO        LGT RAIN  37  37 100 NW2       30.00S FOG
BIG TROUT LK   CLEAR    -20 -35  47 S7        30.37R WCI -37
PICKLE LAKE    NOT AVBL
DRYDEN         CLOUDY     1  -9  60 NE9       30.18F WCI -14
KENORA         CLOUDY     3  -9  55 NE7       30.19F WCI  -9
$$
                *** MANITOBA***

CITY           SKY/WX    TMP DP  RH WIND       PRES   REMARKS
BRANDON        CLOUDY     1  -4  78 SW8       30.18F WCI -12
DAUPHIN        CLEAR      0  -9  65 SW5       30.20R WCI -10
ISLAND LAKE    NOT AVBL
PILOT MOUND      N/A      3  -6  66 SW3         N/A
THE PAS        CLEAR     -4 -15  59 S8        30.07S WCI -19
THOMPSON       CLEAR     -9 -17  70 SE5       30.11S WCI -21
WINNIPEG       CLOUDY     1  -8  66 N2        30.27F
LYNN LAKE      LGT SNOW   1  -2  85 S7        29.88F WCI -11
CHURCHILL      MOCLDY   -20 -31  57 CALM      30.29S
GILLAM         CLEAR    -13 -24  58 S8        30.22R WCI -30
$$
                ***SASKATCHEWAN***

CITY           SKY/WX    TMP DP  RH WIND       PRES   REMARKS
ESTEVAN        CLOUDY    -2  -8  78 SW7       30.13F WCI -16
KINDERSLEY     CLEAR     -9 -15  77 SW14      29.99F WCI -31
LLOYDMINSTER   MOCLDY     9   0  66 W15       29.89S WCI  -8
PRINCE ALBERT  CLEAR     -2  -9  71 SW8       30.02S WCI -17
REGINA         CLOUDY    -4  -9  77 SW8       30.10S WCI -19
YORKTON        CLOUDY    -2  -8  78 SW7       30.11F WC



USA.gov is the U.S. government's official web portal to all federal, state and local government web resources and services.